Simultaneous Nadir Overpasses (SNOs) Predictions

Prediction of SNOs between LANDSAT-8 and METOP-A Satellite Orbit:

Table of predicted SNOs for the next 14.0 days since TLE Epoch: 11/16/2019
Index Date (LANDSAT-8) Time (LANDSAT-8) Lat,Lon (LANDSAT-8) SZA (LANDSAT-8 ) Date (METOP-A) Time (METOP-A) Lat,Lon (METOP-A) SZA (METOP-A ) Distance(km) Time Diff (sec)
1 11/18/2019 12:03:23 81.49, 45.77 103.64 11/18/2019 12:03:09 81.48, 45.60 103.61 2.92 14
2 11/18/2019 12:52:50 -81.48,-146.67 76.37 11/18/2019 12:53:49 -81.48,-146.84 76.36 2.73 59
3 11/21/2019 07:37:38 81.47, 111.97 104.23 11/21/2019 07:37:33 81.48, 111.78 104.21 3.23 5
4 11/21/2019 08:27:05 -81.47, -80.45 75.78 11/21/2019 08:28:13 -81.48, -80.63 75.76 3.10 68
5 11/24/2019 02:22:25 -81.48, 10.82 75.20 11/24/2019 02:21:15 -81.48, 10.65 75.25 2.85 70
6 11/24/2019 03:11:51 81.48, 178.52 104.82 11/24/2019 03:11:55 81.48, 178.34 104.80 2.95 4
7 11/26/2019 21:56:39 -81.48, 77.36 74.66 11/26/2019 21:55:38 -81.48, 77.23 74.70 2.20 61
8 11/26/2019 22:46:05 81.48,-114.97 105.35 11/26/2019 22:46:18 81.48,-115.12 105.34 2.48 13
9 11/29/2019 17:30:53 -81.48, 143.86 74.19 11/29/2019 17:30:01 -81.48, 143.78 74.22 1.32 52




NCC Satellite Simultaneous Nadir Overpasses (SNOs) Prediction Service
